Location: Newark
(41.8083°N, 72.2500°W)
Time: 10:20:48
(UTC+00:00)

Altair - Pass Details

Date: 08 December 2021
Orbit: 1501 x 1683 km, 47.2° (Epoch: 20 January)

Event Time Altitude Azimuth Distance (km) Brightness Sun altitude
Rises 00:08:22 0° 292° (WNW) 4,705 11.0 -30.9°
Reaches altitude 10° 00:11:27 10° 294° (WNW) 3,702 10.2 -31.5°
Maximum altitude 00:20:47 83° 23° (NNE) 1,518 7.2 -33.2°
Enters shadow 00:21:32 77° 83° (E) 1,541 7.2 -33.4°
